Copper Harbor, MI

8:33 PM EDT on April 29, 2017 (GMT -0400)
Copper Harbor

Weather History for KP59 - July, 2014

Change the Weather History Date:

Wednesday, July 2, 2014

  Actual Average Record
Temperature  
Mean Temperature 58 °F -  
Max Temperature 66 °F 67 °F 86 °F (2010)
Min Temperature 50 °F 49 °F 43 °F (1997)
Degree Days  
Heating Degree Days 7    
Growing Degree Days 8 (Base 50)    
Moisture  
Dew Point 43 °F    
Average Humidity 63    
Maximum Humidity 83    
Minimum Humidity 36    
Precipitation  
Precipitation 0.00 in - - ()
Sea Level Pressure  
Sea Level Pressure 29.87 in    
Wind  
Wind Speed 13 mph (NNW)    
Max Wind Speed 21 mph    
Max Gust Speed 23 mph    
Averages and records for this station are not official NWS values.
T = Trace of Precipitation, MM = Missing Value Source: NWS Daily Summary

Daily Weather History Graph

Daily Weather History Graph

Search for Another Location

Airport or City:

Trip Planner

Search our weather history database for the weather conditions in past years. The results will help you decide how hot, cold, wet, or windy it might be!

Date:

Astronomy

Jul. 02, 2014 Rise Set
Actual Time 5:59 AM EDT 9:51 PM EDT
Civil Twilight 5:19 AM EDT 10:31 PM EDT
Nautical Twilight 4:24 AM EDT 11:26 PM EDT
Astronomical Twilight 3:00 AM EDT 12:49 AM EDT
Moon 11:24 AM EDT (7/2) No Moon Set
Length of Visible Light 17h 12m
Length of Day
15h 52m
Waxing Crescent, 24% of the Moon is Illuminated
Jul 2
Waxing Crescent
Jul 5
First Quarter
Jul 12
Full
Jul 18
Last Quarter
Jul 26
New

Hourly Weather History & Observations

Time (EDT) Temp. Dew Point Humidity Pressure Visibility Wind Dir Wind Speed Gust Speed Precip Events Conditions
12:51 AM 51.1 °F 46.0 °F 83% 29.68 in - North 13.8 mph - N/A   Unknown
1:51 AM 50.0 °F 45.0 °F 83% 29.71 in - North 12.7 mph - N/A   Unknown
2:51 AM 50.0 °F 45.0 °F 83% 29.72 in - North 12.7 mph - N/A   Unknown
3:51 AM 50.0 °F 45.0 °F 83% 29.73 in - North 17.3 mph - N/A   Unknown
4:51 AM 51.1 °F 46.0 °F 83% 29.76 in - North 12.7 mph - N/A   Unknown
5:51 AM 52.0 °F 46.0 °F 80% 29.78 in - North 11.5 mph - N/A   Unknown
6:51 AM 52.0 °F 46.0 °F 80% 29.80 in - NNW 11.5 mph - N/A   Unknown
7:51 AM 51.1 °F 46.0 °F 83% 29.83 in - NNW 12.7 mph - N/A   Unknown
8:51 AM 54.0 °F 46.0 °F 75% 29.85 in - North 19.6 mph - N/A   Unknown
9:51 AM 54.0 °F 46.0 °F 75% 29.87 in - North 19.6 mph - N/A   Unknown
10:51 AM 55.9 °F 45.0 °F 67% 29.88 in - North 17.3 mph - N/A   Unknown
11:51 AM 55.9 °F 44.1 °F 64% 29.90 in - North 20.7 mph - N/A   Unknown
12:51 PM 57.9 °F 43.0 °F 58% 29.92 in - NNW 17.3 mph - N/A   Unknown
1:51 PM 60.1 °F 39.9 °F 47% 29.93 in - NNW 15.0 mph 23.0 mph N/A   Unknown
2:51 PM 62.1 °F 39.9 °F 44% 29.94 in - NNW 13.8 mph - N/A   Unknown
3:51 PM 63.0 °F 37.9 °F 40% 29.95 in - North 16.1 mph 21.9 mph N/A   Unknown
4:51 PM 64.9 °F 37.9 °F 37% 29.95 in - North 12.7 mph 21.9 mph N/A   Unknown
5:51 PM 66.0 °F 37.9 °F 36% 29.95 in - NNW 10.4 mph - N/A   Unknown
6:51 PM 59.0 °F 46.0 °F 62% 29.96 in - NNW 8.1 mph - N/A   Unknown
7:51 PM 60.1 °F 45.0 °F 57% 29.96 in - North 8.1 mph - N/A   Unknown
8:51 PM 63.0 °F 37.9 °F 40% 29.95 in - Variable 6.9 mph - N/A   Unknown
9:51 PM 60.1 °F 39.0 °F 46% 29.96 in - Variable 4.6 mph - N/A   Unknown
10:51 PM 59.0 °F 39.0 °F 48% 29.98 in - WNW 6.9 mph - N/A   Unknown
11:51 PM 57.9 °F 41.0 °F 53% 29.99 in - Calm Calm - N/A   Unknown